| time (UTC) | temp C | wind direction | speed KPH | gust KPH | rain 1hr cm | rain 24hr cm | rain mn cm | humidity % | barometer mb |
| 20260504080202 | 10 | 194 | 0.0 | 0.0 | 0.00 | 0.00 | 0.00 | ||
| 20260504070158 | 11 | 194 | 0.0 | 0.0 | 0.00 | 0.00 | 0.00 | ||
| 20260504050656 | 11 | 194 | 0.0 | 0.0 | 0.00 | 0.00 | 0.00 | ||
| 20260504050154 | 11 | 194 | 0.0 | 0.0 | 0.00 | 0.00 | 0.00 | ||
| 20260504045655 | 11 | 194 | 0.0 | 0.0 | 0.00 | 0.00 | 0.00 | ||
| 20260504045154 | 11 | 194 | 0.0 | 0.0 | 0.00 | 0.00 | 0.00 | ||
| 20260504044655 | 11 | 194 | 0.0 | 0.0 | 0.00 | 0.00 | 0.00 | ||
| 20260504044153 | 11 | 194 | 0.0 | 0.0 | 0.00 | 0.00 | 0.00 | ||
| 20260504043654 | 11 | 194 | 0.0 | 0.0 | 0.00 | 0.00 | 0.00 | ||
| 20260504043153 | 11 | 194 | 0.0 | 0.0 | 0.00 | 0.00 | 0.00 | ||
| 20260504042654 | 11 | 194 | 0.0 | 0.0 | 0.00 | 0.00 | 0.00 | ||
| 20260504041653 | 12 | 194 | 0.0 | 0.0 | 0.00 | 0.00 | 0.00 | ||
| 20260504041152 | 11 | 194 | 0.0 | 0.0 | 0.00 | 0.00 | 0.00 | ||
| 20260504040653 | 12 | 194 | 0.0 | 0.0 | 0.00 | 1.78 | 0.00 | ||
| 20260504040151 | 12 | 194 | 0.0 | 0.0 | 0.00 | 1.78 | 0.00 | ||
| 20260504035653 | 12 | 194 | 0.0 | 0.0 | 0.00 | 1.78 | 0.00 | ||
| 20260504034652 | 12 | 194 | 0.0 | 0.0 | 0.00 | 1.78 | 0.00 | ||
| 20260504034151 | 12 | 194 | 0.0 | 0.0 | 0.00 | 1.78 | 0.00 | ||
| 20260504033652 | 12 | 194 | 0.0 | 0.0 | 0.00 | 1.78 | 0.00 | ||
| 20260504033150 | 12 | 194 | 0.0 | 0.0 | 0.00 | 1.78 | 0.00 | ||
| 20260504032651 | 12 | 194 | 0.0 | 0.0 | 0.00 | 1.78 | 0.00 | ||
| 20260504032149 | 12 | 194 | 0.0 | 0.0 | 0.00 | 1.78 | 0.00 | ||
| 20260504031651 | 12 | 194 | 0.0 | 0.0 | 0.00 | 1.78 | 0.00 | ||
| 20260504031149 | 12 | 194 | 0.0 | 0.0 | 0.00 | 1.78 | 0.00 | ||
| 20260504030650 | 12 | 194 | 0.0 | 0.0 | 0.00 | 1.78 | 0.00 | ||
| 20260504030148 | 12 | 194 | 0.0 | 0.0 | 0.00 | 1.78 | 0.00 | ||
| 20260504025650 | 12 | 194 | 0.0 | 0.0 | 0.00 | 1.78 | 0.00 | ||
| 20260504025148 | 12 | 194 | 0.0 | 0.0 | 0.00 | 1.78 | 0.00 | ||
| 20260504024649 | 12 | 194 | 0.0 | 0.0 | 0.00 | 1.78 | 0.00 | ||
| 20260504024147 | 12 | 194 | 0.0 | 0.0 | 0.00 | 1.78 | 0.00 | ||
| 20260504023649 | 12 | 194 | 0.0 | 0.0 | 0.00 | 1.78 | 0.00 | ||
| 20260504023147 | 12 | 194 | 0.0 | 0.0 | 0.00 | 1.78 | 0.00 | ||
| 20260504022648 | 12 | 194 | 0.0 | 0.0 | 0.00 | 1.78 | 0.00 | ||
| 20260504022146 | 12 | 194 | 0.0 | 0.0 | 0.00 | 1.78 | 0.00 | ||
| 20260504021648 | 13 | 194 | 0.0 | 0.0 | 0.00 | 1.78 | 0.00 | ||
| 20260504020647 | 13 | 194 | 0.0 | 0.0 | 0.00 | 1.78 | 0.00 | ||
| 20260504020145 | 13 | 194 | 0.0 | 0.0 | 0.00 | 1.78 | 0.00 | ||
| 20260504015645 | 13 | 194 | 0.0 | 0.0 | 0.00 | 1.78 | 0.00 | ||
| 20260504015144 | 13 | 194 | 0.0 | 0.0 | 0.00 | 1.78 | 0.00 | ||
| 20260504014645 | 13 | 194 | 0.0 | 0.0 | 0.00 | 1.78 | 0.00 | ||
| 20260504014143 | 13 | 194 | 0.0 | 0.0 | 0.00 | 1.78 | 0.00 | ||
| 20260504013643 | 13 | 194 | 0.0 | 0.0 | 0.00 | 1.78 | 0.00 | ||
| 20260504013141 | 14 | 194 | 0.0 | 0.0 | 0.00 | 1.78 | 0.00 | ||
| 20260504012642 | 13 | 194 | 0.0 | 0.0 | 0.00 | 1.78 | 0.00 | ||
| 20260504012141 | 14 | 194 | 0.0 | 0.0 | 0.00 | 1.78 | 0.00 | ||
| 20260504011640 | 14 | 194 | 0.0 | 0.0 | 0.00 | 1.78 | 0.00 | ||
| 20260504010637 | 14 | 273 | 1.6 | 0.0 | 0.00 | 1.78 | 0.00 | ||
| 20260504003133 | 15 | 342 | 0.0 | 0.0 | 0.00 | 1.78 | 0.00 | ||
| 20260504002132 | 16 | 342 | 0.0 | 0.0 | 0.00 | 1.78 | 0.00 | ||
| 20260504001633 | 16 | 342 | 0.0 | 0.0 | 0.00 | 1.78 | 0.00 | ||
| 20260504001132 | 16 | 342 | 0.0 | 0.0 | 0.00 | 1.78 | 0.00 | ||
| 20260504000632 | 16 | 342 | 0.0 | 0.0 | 0.00 | 1.78 | 0.00 | ||
| 20260504000130 | 16 | 342 | 0.0 | 0.0 | 0.00 | 1.78 | 0.00 | ||
| 20260503235631 | 16 | 342 | 0.0 | 0.0 | 0.00 | 1.78 | 0.00 | ||
| 20260503235130 | 17 | 342 | 0.0 | 0.0 | 0.00 | 1.78 | 0.00 | ||
| 20260503234631 | 17 | 335 | 0.0 | 0.0 | 0.00 | 1.78 | 0.00 | ||
| 20260503234129 | 17 | 335 | 0.0 | 0.0 | 0.00 | 1.78 | 0.00 | ||
| 20260503233631 | 17 | 204 | 0.0 | 0.0 | 0.00 | 1.78 | 0.00 | ||
| 20260503233129 | 17 | 204 | 1.6 | 0.0 | 0.00 | 1.78 | 0.00 | ||
| 20260503232630 | 17 | 235 | 3.2 | 1.6 | 0.00 | 1.78 | 0.00 | ||
| 20260503232129 | 17 | 263 | 3.2 | 0.0 | 0.00 | 1.78 | 0.00 | ||
| 20260503231629 | 17 | 7 | 0.0 | 0.0 | 0.00 | 1.78 | 0.00 | ||
| 20260503231127 | 17 | 236 | 0.0 | 0.0 | 0.00 | 1.78 | 0.00 | ||
| 20260503230127 | 17 | 311 | 0.0 | 0.0 | 0.00 | 1.78 | 0.00 | ||
| 20260503225627 | 18 | 32 | 4.8 | 0.0 | 0.00 | 1.78 | 0.00 | ||
| 20260503224627 | 18 | 21 | 3.2 | 3.2 | 0.00 | 1.78 | 0.00 | ||
| 20260503224123 | 18 | 46 | 3.2 | 1.6 | 0.00 | 1.78 | 0.00 | ||
| 20260503222622 | 18 | 203 | 3.2 | 1.6 | 0.00 | 1.78 | 0.00 | ||
| 20260503222116 | 18 | 135 | 0.0 | 8.0 | 0.00 | 1.78 | 0.00 | ||
| 20260503221617 | 18 | 158 | 0.0 | 4.8 | 0.00 | 1.78 | 0.00 | ||
| 20260503215109 | 19 | 333 | 3.2 | 8.0 | 0.00 | 1.78 | 0.00 | ||
| 20260503214103 | 20 | 149 | 6.4 | 1.6 | 0.00 | 1.78 | 0.00 | ||
| 20260503213605 | 20 | 23 | 0.0 | 3.2 | 0.00 | 1.78 | 0.00 | ||
| 20260503213103 | 20 | 325 | 6.4 | 3.2 | 0.00 | 1.78 | 0.00 | ||
| 20260503211102 | 20 | 250 | 9.7 | 6.4 | 0.00 | 1.78 | 0.00 | ||
| 20260503210101 | 20 | 72 | 0.0 | 0.0 | 0.00 | 1.78 | 0.00 | ||
| 20260503205602 | 20 | 242 | 1.6 | 0.0 | 0.00 | 1.78 | 0.00 | ||
| 20260503205101 | 20 | 283 | 0.0 | 0.0 | 0.00 | 1.78 | 0.00 | ||
| 20260503204602 | 21 | 297 | 1.6 | 3.2 | 0.00 | 1.78 | 0.00 | ||
| 20260503203059 | 21 | 259 | 0.0 | 0.0 | 0.00 | 1.78 | 0.00 | ||
| 20260503202059 | 21 | 309 | 0.0 | 1.6 | 0.00 | 1.78 | 0.00 | ||
| 20260503200058 | 21 | 325 | 0.0 | 0.0 | 0.00 | 1.78 | 0.00 | ||
| 20260503195559 | 21 | 293 | 0.0 | 6.4 | 0.00 | 1.78 | 0.00 | ||
| 20260503193558 | 21 | 357 | 4.8 | 4.8 | 0.00 | 1.78 | 0.00 | ||
| 20260503184054 | 21 | 193 | 3.2 | 1.6 | 0.00 | 1.78 | 0.00 | ||
| 20260503090458 | 8 | 120 | 0.0 | 0.0 | 0.00 | 1.78 | 0.00 | ||
| 20260503081454 | 9 | 120 | 0.0 | 0.0 | 0.00 | 1.78 | 0.00 | ||
| 20260503080950 | 9 | 120 | 0.0 | 0.0 | 0.00 | 1.78 | 0.00 | ||
| 20260503080451 | 9 | 120 | 0.0 | 0.0 | 0.00 | 1.78 | 0.00 |